KG4OOZ Weather Reports


Display with metric or nautical units.
time (UTC)temp
F
wind
direction
speed
MPH
gust
MPH
rain 1hr
in
rain 24hr
in
rain mn
in
humidity
%
barometer
mb
20260905213604 97 33 0.0 4.0 0.00 0.00 0.00 54 1013.9
20260905212703 97 351 1.0 4.0 0.00 0.00 0.00 54 1014.0
20260905211803 97 8 0.0 2.0 0.00 0.00 0.00 56 1014.1
20260905210903 97 349 1.0 3.0 0.00 0.00 0.00 54 1014.2
20260905210004 96 28 1.0 7.0 0.00 0.00 0.00 56 1014.1
20260905205403 96 23 2.0 7.0 0.00 0.00 0.00 57 1014.2
20260905204503 97 39 1.0 5.0 0.00 0.00 0.00 53 1014.4
20260905203603 98 53 1.0 4.0 0.00 0.00 0.00 53 1014.5
20260905202703 97 27 1.0 4.0 0.00 0.00 0.00 54 1014.6
20260905201803 98 12 1.0 8.0 0.00 0.00 0.00 54 1014.7
20260905200903 97 39 0.0 5.0 0.00 0.00 0.00 55 1014.8
20260905200003 97 5 1.0 5.0 0.00 0.00 0.00 56 1014.9
20260905195403 97 16 1.0 5.0 0.00 0.00 0.00 54 1014.9
20260905194503 97 351 1.0 4.0 0.00 0.00 0.00 58 1015.0
20260905193603 97 262 2.0 7.0 0.00 0.00 0.00 54 1015.2
20260905192703 96 222 1.0 5.0 0.00 0.00 0.00 56 1015.3
20260905191803 96 35 2.0 4.0 0.00 0.00 0.00 55 1015.4
20260905190903 96 103 2.0 5.0 0.00 0.00 0.00 57 1015.5
20260905190003 96 2 1.0 5.0 0.00 0.00 0.00 56 1015.7
20260905185403 96 256 0.0 2.0 0.00 0.00 0.00 58 1015.8
20260905184503 97 344 1.0 3.0 0.00 0.00 0.00 57 1015.8
20260905183603 96 337 1.0 4.0 0.00 0.00 0.00 57 1015.9
20260905182704 96 32 1.0 3.0 0.00 0.00 0.00 60 1016.3
20260905181803 96 38 2.0 6.0 0.00 0.00 0.00 60 1016.4
20260905180903 96 323 1.0 3.0 0.00 0.00 0.00 60 1016.5
20260905180003 96 276 1.0 3.0 0.00 0.00 0.00 58 1016.6
20260905175404 96 90 1.0 6.0 0.00 0.00 0.00 59 1016.5
20260905174503 96 209 1.0 4.0 0.00 0.00 0.00 63 1016.6
20260905173603 95 151 1.0 4.0 0.00 0.00 0.00 61 1016.7
20260905172703 94 39 1.0 4.0 0.00 0.00 0.00 59 1016.8
20260905171803 94 25 1.0 5.0 0.00 0.00 0.00 59 1016.9
20260905170903 94 42 1.0 4.0 0.00 0.00 0.00 63 1017.1
20260905170003 94 57 1.0 5.0 0.00 0.00 0.00 63 1017.3
20260905165403 94 89 1.0 5.0 0.00 0.00 0.00 61 1017.2
20260905164503 94 154 2.0 6.0 0.00 0.00 0.00 62 1017.1
20260905163603 94 146 2.0 4.0 0.00 0.00 0.00 64 1017.3
20260905162703 93 120 2.0 7.0 0.00 0.00 0.00 64 1017.4
20260905161803 92 79 2.0 7.0 0.00 0.00 0.00 67 1017.5
20260905160903 92 87 1.0 4.0 0.00 0.00 0.00 65 1017.5
20260905160003 92 27 2.0 9.0 0.00 0.00 0.00 67 1017.6
20260905155403 92 89 1.0 9.0 0.00 0.00 0.00 66 1017.6
20260905154503 92 103 2.0 8.0 0.00 0.00 0.00 66 1017.5
20260905153603 91 61 1.0 7.0 0.00 0.00 0.00 68 1017.7
20260905152703 91 40 1.0 5.0 0.00 0.00 0.00 74 1017.7
20260905151803 90 10 2.0 8.0 0.00 0.00 0.00 71 1017.8
20260905150903 90 28 2.0 8.0 0.00 0.00 0.00 72 1017.8
20260905150003 90 45 3.0 8.0 0.00 0.00 0.00 71 1017.8
20260905145403 89 8 3.0 8.0 0.00 0.00 0.00 71 1017.7
20260905144503 89 359 2.0 4.0 0.00 0.00 0.00 69 1017.6
20260905143603 88 6 2.0 8.0 0.00 0.00 0.00 74 1017.6
20260905142703 88 9 3.0 8.0 0.00 0.00 0.00 73 1017.6
20260905141803 87 13 2.0 6.0 0.00 0.00 0.00 77 1017.6
20260905140903 86 20 1.0 4.0 0.00 0.00 0.00 78 1017.6
20260905140004 86 17 1.0 4.0 0.00 0.00 0.00 80 1017.7
20260905135403 85 0 0.0 0.0 0.00 0.00 0.00 79 1017.6
20260905134503 84 0 0.0 0.0 0.00 0.00 0.00 83 1017.6
20260905133603 81 0 0.0 0.0 0.00 0.00 0.00 88 1017.8
20260905132703 79 0 0.0 0.0 0.00 0.00 0.00 92 1017.9
20260905131803 78 0 0.0 0.0 0.00 0.00 0.00 94 1017.9
20260905130903 77 0 0.0 0.0 0.00 0.00 0.00 95 1017.9
20260905130003 76 0 0.0 0.0 0.00 0.00 0.00 96 1017.9
20260905125403 76 0 0.0 0.0 0.00 0.00 0.00 96 1018.0
20260905124503 75 0 0.0 0.0 0.00 0.00 0.00 96 1017.9
20260905123603 75 0 0.0 0.0 0.00 0.00 0.00 96 1017.9
20260905122703 74 0 0.0 0.0 0.00 0.00 0.00 96 1017.8
20260905121803 74 0 0.0 0.0 0.00 0.00 0.00 96 1017.8
20260905120903 74 0 0.0 0.0 0.00 0.00 0.00 96 1017.7
20260905120003 74 0 0.0 0.0 0.00 0.00 0.00 96 1017.7
20260905115403 74 0 0.0 0.0 0.00 0.00 0.00 96 1017.7
20260905114503 74 0 0.0 0.0 0.00 0.00 0.00 96 1017.4
20260905113603 74 0 0.0 0.0 0.00 0.00 0.00 96 1017.3
20260905112703 74 0 0.0 0.0 0.00 0.00 0.00 96 1017.1
20260905111803 74 0 0.0 0.0 0.00 0.00 0.00 96 1017.0
20260905110903 74 0 0.0 0.0 0.00 0.00 0.00 94 1016.8
20260905110003 74 0 0.0 0.0 0.00 0.00 0.00 95 1016.6
20260905105403 74 0 0.0 0.0 0.00 0.00 0.00 95 1016.7
20260905104503 74 0 0.0 0.0 0.00 0.00 0.00 95 1016.6
20260905103603 74 0 0.0 0.0 0.00 0.00 0.00 95 1016.7
20260905102703 74 0 0.0 0.0 0.00 0.00 0.00 95 1016.7
20260905101803 74 0 0.0 0.0 0.00 0.00 0.00 95 1016.7
20260905100903 74 0 0.0 0.0 0.00 0.00 0.00 95 1016.6
20260905100003 74 0 0.0 0.0 0.00 0.00 0.00 95 1016.5
20260905095403 74 0 0.0 0.0 0.00 0.00 0.00 95 1016.3
20260905094503 74 0 0.0 0.0 0.00 0.00 0.00 95 1016.3
20260905093603 74 0 0.0 0.0 0.00 0.00 0.00 95 1016.3
20260905092703 74 0 0.0 0.0 0.00 0.00 0.00 95 1016.3
20260905091803 74 0 0.0 0.0 0.00 0.00 0.00 95 1016.2
20260905090903 74 0 0.0 0.0 0.00 0.00 0.00 94 1016.1
20260905090003 75 0 0.0 0.0 0.00 0.00 0.00 95 1016.1
20260905085403 75 0 0.0 0.0 0.00 0.00 0.00 95 1016.1
20260905084503 75 0 0.0 0.0 0.00 0.00 0.00 94 1016.1
20260905083603 75 0 0.0 0.0 0.00 0.00 0.00 94 1016.1
20260905082703 75 0 0.0 0.0 0.00 0.00 0.00 94 1016.2
20260905081804 75 0 0.0 0.0 0.00 0.00 0.00 94 1016.2
20260905080903 75 0 0.0 0.0 0.00 0.00 0.00 94 1016.2
20260905080003 75 0 0.0 0.0 0.00 0.00 0.00 94 1016.2
20260905075403 75 0 0.0 0.0 0.00 0.00 0.00 94 1016.2
20260905074503 76 0 0.0 0.0 0.00 0.00 0.00 93 1016.2
20260905073603 76 0 0.0 0.0 0.00 0.00 0.00 93 1016.3
20260905072703 76 0 0.0 0.0 0.00 0.00 0.00 93 1016.4
20260905071803 76 0 0.0 0.0 0.00 0.00 0.00 93 1016.5
20260905070903 76 0 0.0 0.0 0.00 0.00 0.00 93 1016.6
20260905070003 76 0 0.0 0.0 0.00 0.00 0.00 92 1016.7
20260905065403 76 0 0.0 0.0 0.00 0.00 0.00 92 1016.7
20260905064503 76 0 0.0 0.0 0.00 0.00 0.00 93 1016.7
20260905063603 76 0 0.0 0.0 0.00 0.00 0.00 93 1016.8
20260905062703 76 193 0.0 3.0 0.00 0.00 0.00 93 1016.9
20260905061803 76 194 1.0 4.0 0.00 0.00 0.00 94 1016.9
20260905060903 76 0 0.0 0.0 0.00 0.00 0.00 95 1017.0
20260905060003 76 0 0.0 0.0 0.00 0.00 0.00 94 1017.1
20260905055403 76 0 0.0 0.0 0.00 0.00 0.00 94 1017.1
20260905054503 77 0 0.0 0.0 0.00 0.00 0.00 94 1017.2
20260905053603 77 0 0.0 0.0 0.00 0.00 0.00 93 1017.2
20260905052703 77 0 0.0 0.0 0.00 0.00 0.00 92 1017.1
20260905051803 77 0 0.0 0.0 0.00 0.00 0.00 92 1017.1
20260905050903 77 0 0.0 0.0 0.00 0.00 0.00 93 1017.1
20260905050004 77 0 0.0 0.0 0.00 0.00 0.00 93 1017.1
20260905045403 78 0 0.0 0.0 0.00 0.00 0.00 93 1017.1
20260905044503 78 0 0.0 0.0 0.00 0.00 0.00 94 1017.1
20260905043603 78 0 0.0 0.0 0.00 0.00 0.00 93 1017.1
20260905042703 78 0 0.0 0.0 0.00 0.00 0.00 93 1017.1
20260905041803 78 0 0.0 0.0 0.00 0.00 0.00 92 1017.1
20260905040903 78 0 0.0 0.0 0.00 0.00 0.00 92 1017.1
20260905040003 79 0 0.0 0.0 0.00 0.00 0.00 92 1017.2
20260905035403 79 0 0.0 0.0 0.00 0.00 0.00 91 1017.2
20260905034503 79 0 0.0 0.0 0.00 0.00 0.00 92 1017.2
20260905033603 79 0 0.0 0.0 0.00 0.00 0.00 90 1017.3
20260905032703 79 0 0.0 0.0 0.00 0.00 0.00 90 1017.3
20260905031803 79 0 0.0 0.0 0.00 0.00 0.00 90 1017.3
20260905030903 80 0 0.0 0.0 0.00 0.00 0.00 89 1017.4
20260905030003 80 0 0.0 0.0 0.00 0.00 0.00 88 1017.4
20260905025403 80 0 0.0 0.0 0.00 0.00 0.00 85 1017.4
20260905024503 80 208 1.0 2.0 0.00 0.00 0.00 86 1017.4
20260905023603 81 208 2.0 2.0 0.00 0.00 0.00 86 1017.4
20260905022703 81 208 1.0 3.0 0.00 0.00 0.00 85 1017.2
20260905021803 82 0 0.0 0.0 0.00 0.00 0.00 83 1017.3
20260905020903 82 0 0.0 0.0 0.00 0.00 0.00 83 1017.1
20260905020003 82 0 0.0 0.0 0.00 0.00 0.00 83 1017.1
20260905015403 83 0 0.0 0.0 0.00 0.00 0.00 81 1017.1
20260905014503 83 0 0.0 0.0 0.00 0.00 0.00 81 1017.0
20260905013603 84 0 0.0 0.0 0.00 0.00 0.00 80 1016.9
20260905012703 84 0 0.0 0.0 0.00 0.00 0.00 79 1016.6
20260905011803 84 0 0.0 0.0 0.00 0.00 0.00 78 1016.7
20260905010903 85 225 1.0 2.0 0.00 0.00 0.00 77 1016.6
20260905010003 86 233 0.0 3.0 0.00 0.00 0.00 75 1016.6
20260905005403 86 0 0.0 0.0 0.00 0.00 0.00 73 1016.6
20260905004503 86 0 0.0 0.0 0.00 0.00 0.00 74 1016.7
20260905003603 87 0 0.0 0.0 0.00 0.00 0.00 73 1016.6
20260905002703 87 0 0.0 0.0 0.00 0.00 0.00 72 1016.7
20260905001803 88 0 0.0 0.0 0.00 0.00 0.00 71 1016.7
20260905000903 88 0 0.0 0.0 0.00 0.00 0.00 70 1016.6
20260905000003 89 0 0.0 0.0 0.00 0.00 0.00 69 1016.7
20260904235403 89 0 0.0 0.0 0.00 0.00 0.00 69 1016.7
20260904234503 90 0 0.0 0.0 0.00 0.00 0.00 67 1016.7
20260904233603 90 0 0.0 0.0 0.00 0.00 0.00 67 1016.6
20260904232703 91 343 0.0 2.0 0.00 0.00 0.00 66 1016.6
20260904231803 92 346 0.0 1.0 0.00 0.00 0.00 64 1016.6
20260904230903 92 355 0.0 3.0 0.00 0.00 0.00 63 1016.5
20260904230003 93 0 0.0 0.0 0.00 0.00 0.00 61 1016.4
20260904225403 93 0 0.0 0.0 0.00 0.00 0.00 62 1016.5
20260904224503 94 0 0.0 0.0 0.00 0.00 0.00 61 1016.4
20260904223603 94 0 0.0 0.0 0.00 0.00 0.00 59 1016.4
20260904222703 95 0 0.0 0.0 0.00 0.00 0.00 58 1016.3
20260904221803 95 178 0.0 2.0 0.00 0.00 0.00 59 1016.3
20260904220903 96 355 0.0 4.0 0.00 0.00 0.00 58 1016.3
20260904220003 97 321 0.0 3.0 0.00 0.00 0.00 55 1016.3
20260904215403 97 342 0.0 4.0 0.00 0.00 0.00 56 1016.3
20260904214503 98 23 1.0 5.0 0.00 0.00 0.00 53 1016.4